Location: Morehouse Lake Observatory
(43.3628°N, 74.6770°W)
Time: 15:00:19
(UTC-05:00)

Envisat - Pass Details

Date: 23 October 2019
Orbit: 764 x 766 km, 98.1° (Epoch: 13 November)

Event Time Altitude Azimuth Distance (km) Brightness Sun altitude
Rises 19:57:48 0° 197° (SSW) 3,218 6.4 -21.5°
Reaches altitude 10° 20:00:28 10° 210° (SSW) 2,296 5.8 -22.0°
Maximum altitude 20:04:39 26° 266° (W) 1,481 5.2 -22.7°
Drops below altitude 10° 20:08:52 10° 322° (NW) 2,310 6.0 -23.5°
Sets 20:11:34 0° 335° (NNW) 3,241 6.7 -24.0°
